Satellite-Ground Cal/Val Region Overpasses Predictions

Prediction of Satellite NPP Overpassing Cal/Val Region: PacNW

Region Location: (Latitude: 10.00, Longitude: 139.50) to (Latitude: 22.70, Longitude: 165.60).

Table of predicted overpasses for the next 14.0 days since TLE Epoch: 1/12/2015
Interval Starting Time Starting Location Ending Time Ending Location
1 01/13/2015 03:49:59 ( 10.04, 143.99) 01/13/2015 03:53:34 ( 22.67, 141.00)
2 01/13/2015 14:41:29 ( 18.64, 165.59) 01/13/2015 14:43:56 ( 10.00, 163.58)
3 01/13/2015 16:21:50 ( 22.67, 141.21) 01/13/2015 16:23:50 ( 15.63, 139.50)
4 01/14/2015 03:30:54 ( 10.01, 148.76) 01/14/2015 03:34:30 ( 22.69, 145.76)
5 01/14/2015 16:02:47 ( 22.65, 145.96) 01/14/2015 16:06:22 ( 10.03, 142.97)
6 01/15/2015 03:11:51 ( 10.03, 153.52) 01/15/2015 03:15:26 ( 22.65, 150.53)
7 01/15/2015 15:43:42 ( 22.69, 150.73) 01/15/2015 15:47:18 ( 10.00, 147.72)
8 01/16/2015 02:52:47 ( 10.05, 158.27) 01/16/2015 02:56:22 ( 22.68, 155.28)
9 01/16/2015 15:24:39 ( 22.66, 155.49) 01/16/2015 15:28:14 ( 10.04, 152.49)
10 01/17/2015 02:33:43 ( 10.02, 163.04) 01/17/2015 02:37:18 ( 22.64, 160.05)
11 01/17/2015 15:05:35 ( 22.69, 160.25) 01/17/2015 15:09:11 ( 10.01, 157.25)
12 01/18/2015 02:17:19 ( 19.44, 165.60) 01/18/2015 02:18:14 ( 22.67, 164.81)
13 01/18/2015 03:56:08 ( 10.00, 142.43) 01/18/2015 03:59:39 ( 22.39, 139.50)
14 01/18/2015 14:46:31 ( 22.67, 165.01) 01/18/2015 14:50:06 ( 10.04, 162.02)
15 01/18/2015 16:28:01 ( 22.65, 139.63) 01/18/2015 16:28:10 ( 22.12, 139.50)
16 01/19/2015 03:37:05 ( 10.03, 147.19) 01/19/2015 03:40:40 ( 22.65, 144.20)
17 01/19/2015 16:08:57 ( 22.68, 144.40) 01/19/2015 16:12:33 ( 10.00, 141.40)
18 01/20/2015 03:18:01 ( 10.05, 151.94) 01/20/2015 03:21:36 ( 22.68, 148.95)
19 01/20/2015 15:49:53 ( 22.66, 149.16) 01/20/2015 15:53:28 ( 10.03, 146.16)
20 01/21/2015 02:58:57 ( 10.02, 156.71) 01/21/2015 03:02:32 ( 22.65, 153.72)
21 01/21/2015 15:30:49 ( 22.69, 153.92) 01/21/2015 15:34:25 ( 10.00, 150.92)
22 01/22/2015 02:39:53 ( 10.05, 161.47) 01/22/2015 02:43:28 ( 22.68, 158.48)
23
